EW3027 Weather Reports


Display with metric or nautical units.
time (UTC)temp
F
wind
direction
speed
MPH
gust
MPH
rain 1hr
in
rain 24hr
in
rain mn
in
humidity
%
barometer
mb
20260508102317 49 0.0 0.0 0.00 0.00 0.00 85 1018.6
20260508101317 50 0.0 0.0 0.00 0.00 0.00 85 1018.4
20260508100338 50 0.0 0.0 0.00 0.00 0.00 85 1018.4
20260508095318 50 0.0 0.0 0.00 0.00 0.00 84 1018.2
20260508094318 50 0.0 0.0 0.00 0.00 0.00 83 1018.1
20260508093338 50 0.0 0.0 0.00 0.00 0.00 82 1017.9
20260508092317 51 0.0 0.0 0.00 0.00 0.00 82 1017.9
20260508091338 51 0.0 0.0 0.00 0.00 0.00 82 1017.8
20260508090317 51 0.0 0.0 0.00 0.00 0.00 83 1017.8
20260508085337 51 0.0 0.0 0.00 0.00 0.00 82 1017.7
20260508084317 52 0.0 0.0 0.00 0.00 0.00 83 1017.7
20260508083338 52 0.0 0.0 0.00 0.00 0.00 83 1017.6
20260508082317 52 0.0 0.0 0.00 0.00 0.00 82 1017.5
20260508081318 52 0.0 0.0 0.00 0.00 0.00 82 1017.4
20260508080317 52 0.0 0.0 0.00 0.00 0.00 80 1017.3
20260508075317 53 0.0 0.0 0.00 0.00 0.00 80 1017.4
20260508074318 53 0.0 0.0 0.00 0.00 0.00 79 1017.3
20260508073358 53 0.0 0.0 0.00 0.00 0.00 78 1017.2
20260508072318 54 0.0 0.0 0.00 0.00 0.00 77 1017.1
20260508071317 55 0.0 0.0 0.00 0.00 0.00 76 1017.0
20260508070317 55 0.0 0.0 0.00 0.00 0.00 76 1016.9
20260508065337 56 0.0 0.0 0.00 0.00 0.00 74 1016.8
20260508064317 56 0.0 0.0 0.00 0.00 0.00 73 1016.9
20260508063317 57 0.0 0.0 0.00 0.00 0.00 72 1017.0
20260508062317 57 0.0 0.0 0.00 0.00 0.00 71 1016.9
20260508061337 58 0.0 0.0 0.00 0.00 0.00 69 1017.0
20260508060317 58 0.0 0.0 0.00 0.00 0.00 66 1016.9
20260508055337 59 0.0 0.0 0.00 0.00 0.00 65 1016.9
20260508054317 59 0.0 0.0 0.00 0.00 0.00 63 1016.9
20260508053337 59 0.0 0.0 0.00 0.00 0.00 62 1016.7
20260508052317 60 0.0 0.0 0.00 0.00 0.00 59 1016.6
20260508051317 61 0.0 0.0 0.00 0.00 0.00 59 1016.6
20260508050317 61 0.0 0.0 0.00 0.00 0.00 55 1016.6
20260508045357 61 0.0 0.0 0.00 0.00 0.00 59 1016.5
20260508044318 62 0.0 0.0 0.00 0.00 0.00 58 1016.5
20260508043317 62 0.0 0.0 0.00 0.00 0.00 63 1016.3
20260508042317 62 0.0 0.0 0.00 0.00 0.00 66 1016.2
20260508041316 63 0.0 0.0 0.00 0.00 0.00 64 1016.1
20260508040317 63 0.0 0.0 0.00 0.00 0.00 68 1015.9
20260508035317 63 0.0 0.0 0.00 0.00 0.00 67 1015.8
20260508034337 64 0.0 0.0 0.00 0.00 0.00 66 1015.6
20260508033317 64 0.0 0.0 0.00 0.00 0.00 63 1015.3
20260508032357 65 0.0 0.0 0.00 0.00 0.00 64 1015.1
20260508031316 66 0.0 0.0 0.00 0.00 0.00 61 1015.0
20260508030316 68 0.0 0.0 0.00 0.00 0.00 58 1014.9
20260508025316 69 0.0 0.0 0.00 0.00 0.00 54 1014.9
20260508024316 70 0.0 0.0 0.00 0.00 0.00 52 1014.8
20260508023316 74 0.0 0.0 0.00 0.00 0.00 46 1014.9
20260508022317 76 0.0 0.0 0.00 0.00 0.00 44 1015.0
20260508021316 74 0.0 0.0 0.00 0.00 0.00 46 1014.9
20260508020317 74 0.0 0.0 0.00 0.00 0.00 46 1015.0
20260508015317 74 0.0 0.0 0.00 0.00 0.00 44 1015.1
20260508014316 75 0.0 0.0 0.00 0.00 0.00 43 1015.2
20260508013317 75 0.0 0.0 0.00 0.00 0.00 43 1015.3
20260508012317 75 0.0 0.0 0.00 0.00 0.00 43 1015.4
20260508011317 74 0.0 0.0 0.00 0.00 0.00 43 1015.5
20260508010316 73 0.0 0.0 0.00 0.00 0.00 44 1015.7
20260508005317 73 0.0 0.0 0.00 0.00 0.00 46 1015.8
20260508004316 72 0.0 0.0 0.00 0.00 0.00 46 1015.8
20260508003317 72 0.0 0.0 0.00 0.00 0.00 46 1015.8
20260508002336 72 0.0 0.0 0.00 0.00 0.00 44 1015.8
20260508001316 72 0.0 0.0 0.00 0.00 0.00 44 1015.9
20260508000316 71 0.0 0.0 0.00 0.00 0.00 46 1016.0
20260507235317 71 0.0 0.0 0.00 0.00 0.00 47 1016.2
20260507234316 71 0.0 0.0 0.00 0.00 0.00 49 1016.2
20260507233316 70 0.0 0.0 0.00 0.00 0.00 50 1016.3
20260507232317 70 0.0 0.0 0.00 0.00 0.00 56 1016.5
20260507231317 70 0.0 0.0 0.00 0.00 0.00 55 1016.5
20260507230316 69 0.0 0.0 0.00 0.00 0.00 58 1016.6
20260507225317 69 0.0 0.0 0.00 0.00 0.00 59 1016.7
20260507224317 69 0.0 0.0 0.00 0.00 0.00 58 1016.8
20260507223316 69 0.0 0.0 0.00 0.00 0.00 61 1016.9
20260507222316 68 0.0 0.0 0.00 0.00 0.00 61 1017.0
20260507221316 68 0.0 0.0 0.00 0.00 0.00 62 1017.3
20260507220316 68 0.0 0.0 0.00 0.00 0.00 61 1017.3
20260507215316 67 0.0 2.0 0.00 0.00 0.00 62 1017.4
20260507214316 67 0.0 1.0 0.00 0.00 0.00 62 1017.5
20260507213317 67 0.0 0.0 0.00 0.00 0.00 63 1017.6
20260507212316 66 0.0 0.0 0.00 0.00 0.00 65 1017.7
20260507211316 65 0.0 0.0 0.00 0.00 0.00 67 1017.7
20260507210336 64 0.0 0.0 0.00 0.00 0.00 66 1017.9
20260507205316 64 0.0 0.0 0.00 0.00 0.00 68 1018.1
20260507204316 63 0 2.0 4.0 0.00 0.00 0.00 71 1018.1
20260507203316 63 23 2.0 3.0 0.00 0.00 0.00 70 1018.3
20260507202336 63 0 2.0 5.0 0.00 0.00 0.00 69 1018.5
20260507201316 62 0.0 0.0 0.00 0.00 0.00 72 1018.5
20260507200316 62 0.0 0.0 0.00 0.00 0.00 72 1018.6
20260507195316 61 0.0 1.0 0.00 0.00 0.00 73 1018.7
20260507194316 61 0.0 0.0 0.00 0.00 0.00 74 1018.8
20260507193356 60 0.0 0.0 0.00 0.00 0.00 75 1018.8
20260507192316 60 0.0 0.0 0.00 0.00 0.00 76 1018.9
20260507191316 60 0.0 0.0 0.00 0.00 0.00 75 1019.0
20260507190357 60 0.0 0.0 0.00 0.00 0.00 76 1019.1
20260507185316 59 0.0 0.0 0.00 0.00 0.00 77 1019.1
20260507184316 58 0.0 0.0 0.00 0.00 0.00 79 1019.1
20260507183316 58 0.0 0.0 0.00 0.00 0.00 79 1019.1
20260507182316 57 0.0 0.0 0.00 0.00 0.00 80 1019.2
20260507181316 57 0.0 0.0 0.00 0.00 0.00 81 1019.2
20260507180316 57 0.0 0.0 0.00 0.00 0.00 82 1019.2
20260507175336 57 0.0 0.0 0.00 0.00 0.00 83 1019.2
20260507174316 56 0.0 1.0 0.00 0.00 0.00 84 1019.3
20260507173336 56 45 1.0 1.0 0.00 0.00 0.00 84 1019.3
20260507172356 56 0.0 0.0 0.00 0.00 0.00 85 1019.4
20260507171316 55 0.0 0.0 0.00 0.00 0.00 86 1019.4
20260507170316 55 0.0 0.0 0.00 0.00 0.00 87 1019.4
20260507165316 54 0.0 0.0 0.00 0.00 0.00 87 1019.4
20260507164316 54 0.0 0.0 0.00 0.00 0.00 88 1019.4
20260507163318 54 0.0 0.0 0.00 0.00 0.00 89 1019.5
20260507162318 53 0.0 0.0 0.00 0.00 0.00 89 1019.5
20260507161318 53 0.0 0.0 0.00 0.00 0.00 90 1019.6
20260507160318 53 0.0 0.0 0.00 0.00 0.00 90 1019.6
20260507155338 52 0.0 0.0 0.00 0.00 0.00 91 1019.7
20260507154318 52 0.0 0.0 0.00 0.00 0.00 91 1019.7
20260507153317 52 0.0 0.0 0.00 0.00 0.00 92 1019.8
20260507152318 52 0.0 0.0 0.00 0.00 0.00 92 1019.8
20260507151338 52 0.0 0.0 0.00 0.00 0.00 92 1019.7
20260507150318 52 0.0 0.0 0.00 0.00 0.00 93 1019.7
20260507145318 52 0.0 0.0 0.00 0.00 0.00 93 1019.7
20260507144318 51 0.0 0.0 0.00 0.00 0.00 92 1019.7
20260507143318 51 0.0 0.0 0.00 0.00 0.00 92 1019.6
20260507142318 51 0.0 0.0 0.00 0.00 0.00 92 1019.6
20260507141317 51 0.0 0.0 0.00 0.00 0.00 92 1019.6
20260507140318 51 0.0 0.0 0.00 0.00 0.00 92 1019.5
20260507135317 51 0.0 0.0 0.00 0.00 0.00 92 1019.5
20260507134317 51 0.0 0.0 0.00 0.00 0.00 92 1019.4
20260507133318 51 0.0 0.0 0.00 0.00 0.00 92 1019.5
20260507132338 51 0.0 0.0 0.00 0.00 0.00 92 1019.5
20260507131338 51 0.0 0.0 0.00 0.00 0.00 92 1019.5
20260507130338 51 0.0 0.0 0.00 0.00 0.00 92 1019.6
20260507125338 51 0.0 0.0 0.00 0.00 0.00 92 1019.6
20260507124318 51 0.0 0.0 0.00 0.00 0.00 92 1019.6
20260507123317 51 0.0 0.0 0.00 0.00 0.00 92 1019.7
20260507122317 51 0.0 0.0 0.00 0.00 0.00 91 1019.8
20260507121318 51 0.0 0.0 0.00 0.00 0.00 91 1019.8
20260507120317 51 0.0 0.0 0.00 0.00 0.00 91 1019.9
20260507115318 51 0.0 0.0 0.00 0.00 0.00 91 1019.9
20260507114318 51 0.0 0.0 0.00 0.00 0.00 91 1020.1
20260507113317 51 0.0 0.0 0.00 0.00 0.00 90 1020.1
20260507111318 51 0.0 0.0 0.00 0.00 0.00 90 1020.1
20260507110338 51 0.0 0.0 0.00 0.00 0.00 89 1020.1
20260507105318 51 0.0 0.0 0.00 0.00 0.00 89 1020.1
20260507104438 52 0.0 0.0 0.00 0.00 0.00 89 1020.2
20260507103318 52 0.0 0.0 0.00 0.00 0.00 88 1020.3